Regional Weather Roundup
Issued by NWS

Current Version | Previous Version | Text Only | Print | Product List | Glossary On
Versions: 1 2 3 4 5 6 7 8 9 10 11 12 13 14 15 16 17 18 19 20 21 22 23 24 25 26 27 28 29 30 31 32 33 34 35 36 37 38 39 40 41 42 43 44 45 46 47 48 49 50
000
ASUS44 KLIX 291513
RWRLA
LOUISIANA WEATHER ROUNDUP
NATIONAL WEATHER SERVICE NEW ORLEANS LA
1000 AM CDT SAT APR 29 2017

NOTE: "FAIR" INDICATES FEW OR NO CLOUDS BELOW 12,000 FEET WITH NO
      SIGNIFICANT WEATHER AND/OR OBSTRUCTIONS TO VISIBILITY.
      SKY/WX - SKY CONDITION AND SIGNIFICANT WEATHER.
      TMP - AIR TEMPERATURE.    DP   - DEWPOINT TEMPERATURE.
      RH  - RELATIVE HUMIDITY.  PRES - PRESSURE.
      HX  - HEAT INDEX.         WCI  - WIND CHILL INDEX.

*  THESE STATIONS ARE NOT NWS OR FAA STATIONS AND ARE NOT UNDER
   NWS QUALITY CONTROL.

LAZ040-048-061>063-065-066-069-291600-
SOUTHEAST LOUISIANA

CITY           SKY/WX    TMP DP  RH WIND       PRES   REMARKS
N.O. INTL ARPT CLOUDY    79  74  84 S21G30    29.92S
N.O. LAKEFRONT CLOUDY    81  74  79 S18       29.93S
N.O. DOWNTOWN*   N/A     80  74  81 S16G23      N/A
RESERVE*       NOT AVBL
SLIDELL        CLOUDY    81  74  79 S17G26    29.94S
BATON ROUGE    PTSUNNY   82  72  71 S22G32    29.88S
BOOTHVILLE     CLOUDY    80  75  84 SE17G28   29.96S
BELLE CHASSE   CLOUDY    79  75  87 S17G29    29.92S
BOGALUSA*      NOT AVBL
GALLIANO*      CLOUDY    80  73  80 SE13G22   29.93S
NEW ROADS*     CLOUDY    80  72  75 S14G29    29.87S
GONZALES*      CLOUDY    82  73  72 SE15G25   29.89S
HAMMOND*       CLOUDY    79  72  78 SE14      29.93R
HOUMA*         PTSUNNY   82  75  78 SE20G29     N/A  HAZE
PORT FOURCHON* PTSUNNY   79  75  89 SE18      29.92F FOG

$$

LAZ041-044-053-054-291600-
SOUTHWEST LOUISIANA

CITY           SKY/WX    TMP DP  RH WIND       PRES   REMARKS
LAKE CHARLES   CLOUDY    80  74  81 SE25G37   29.77F
LAFAYETTE      CLOUDY    85  74  69 S16G32    29.83F
PATTERSON      CLOUDY    81  74  79 S15G26    29.89F
SALT POINT       N/A     80  74  81 SE12G22   29.86F
NEW IBERIA     LGT RAIN  83  72  69 SE30G39   29.84F
CHENAULT AIRPK CLOUDY    68  63  83 SE25G36   29.78F

$$

LAZ027-028-291600-
CENTRAL LOUISIANA

CITY           SKY/WX    TMP DP  RH WIND       PRES   REMARKS
FORT POLK      CLOUDY    79  73  81 SE18G28   29.77S
ALEXANDRIA INT CLOUDY    81  71  71 S22G32    29.78R
ALEXANDRIA     CLOUDY    81  72  74 S15G28    29.81S

$$

LAZ001-002-291600-
NORTHWEST LOUISIANA

CITY           SKY/WX    TMP DP  RH WIND       PRES   REMARKS
SHREVEPORT     CLOUDY    80  72  76 S17G28    29.71R
BARKSDALE AFB  MOSUNNY   78  72  82 S15G24    29.71S
DTN SHREVEPORT CLOUDY    80  72  76 SE15G24   29.71S

$$

LAZ014-016-291600-
NORTHEAST LOUISIANA

CITY           SKY/WX    TMP DP  RH WIND       PRES   REMARKS
MONROE         CLOUDY    79  70  74 S12G20    29.82S
TALLULAH       LGT RAIN  80  70  71 S13G25    29.87R

$$




USA.gov is the U.S. government's official web portal to all federal, state and local government web resources and services.